Regional Weather Roundup
Issued by NWS

Home | Current Version | Previous Version | Graphics & Text | Print | Product List | Glossary On
Versions: 1 2 3 4 5 6 7 8 9 10 11 12 13 14 15 16 17 18 19 20 21 22 23 24 25 26 27 28 29 30 31 32 33 34 35 36 37 38 39 40 41 42 43 44 45 46 47 48 49 50
000
ASUS43 KOAX 200502
RWRNE

WEATHER ROUNDUP FOR NEBRASKA
NATIONAL WEATHER SERVICE OMAHA NE
1200 AM CDT FRI OCT 20 2017

NOTES: SATELLITE DATA IS BEING USED TO AUGMENT CLOUD COVER ABOVE
       12000 FEET.
       "FAIR" INDICATES FEW OR NO CLOUDS BELOW 12,000 FEET WITH NO
       SIGNIFICANT WEATHER AND/OR OBSTRUCTIONS TO VISIBILITY.


NEZ001>004-019>022-054>056-200600-
NEBRASKA PANHANDLE

CITY           SKY/WX    TMP DP  RH WIND       PRES   REMARKS
SCOTTSBLUFF    PTCLDY    54  32  43 MISG      29.83R
ALLIANCE       PTCLDY    52  42  69 S10       29.82F
CHADRON        CLEAR     67  36  31 S21       29.74F
GORDON         FAIR      63  44  50 S9        29.79F
KIMBALL        CLEAR     49  33  55 S5        29.88F
SIDNEY         PTCLDY    54  39  57 S9        29.87F
$$

NEZ057>060-069>072-079>082-200600-
SOUTHWEST NEBRASKA

CITY           SKY/WX    TMP DP  RH WIND       PRES   REMARKS
NORTH PLATTE   PTCLDY    64  43  46 SE8       29.88F
IMPERIAL       PTCLDY    60  42  51 S10       29.88F
LEXINGTON      PTCLDY    61  45  56 S10       29.92S
MCCOOK         MOCLDY    64  43  46 S13       29.90F
OGALLALA       PTCLDY    63  45  52 CALM      29.87F
$$

NEZ005>010-023>029-035>040-094-200600-
NORTH CENTRAL NEBRASKA

CITY           SKY/WX    TMP DP  RH WIND       PRES   REMARKS
VALENTINE      PTCLDY    67  45  45 S15       29.81S
AINSWORTH      PTCLDY    60  48  63 S16       29.83F
BROKEN BOW     MOCLDY    60  45  57 S8        29.90S
O`NEILL        PTCLDY    62  49  63 S7        29.87F
ORD            MOCLDY    62  44  51 S13       29.89S
THEDFORD       PTCLDY    65  44  45 S13       29.86F
$$

NEZ041-046>049-061>064-073>077-083>087-200600-
SOUTH CENTRAL NEBRASKA

CITY           SKY/WX    TMP DP  RH WIND       PRES   REMARKS
GRAND ISLAND   FAIR      61  48  62 S15       29.94S
AURORA         FAIR      61  46  59 S9        29.95S
HASTINGS       FAIR      61  46  57 S12       29.96S
HEBRON         FAIR      62  48  58 S12       29.98S
HOLDREGE       FAIR      60  46  61 S13G18    29.93S
KEARNEY        FAIR      61  45  55 S14       29.93S
YORK           FAIR      63  46  55 S13       29.96S
$$

NEZ011>018-030>034-042>045-200600-
NORTHEAST NEBRASKA

CITY           SKY/WX    TMP DP  RH WIND       PRES   REMARKS
NORFOLK        FAIR      64  48  56 S15G22    29.91S
ALBION         FAIR      61  48  62 S8        29.92S
BLAIR          FAIR      64  51  62 S14       29.96F
COLUMBUS       FAIR      65  47  52 S16G22    29.94S
FREMONT        FAIR      65  49  56 S9        29.96S
TEKAMAH        FAIR      56  50  80 S7        29.94S
WAYNE          FAIR      57  51  79 S6        29.91F
$$

NEZ050>053-065>068-078-088>093-200600-
SOUTHEAST NEBRASKA

CITY           SKY/WX    TMP DP  RH WIND       PRES   REMARKS
LINCOLN        FAIR      63  48  58 S15       29.97F
OMAHA EPPLEY   FAIR      62  51  67 S12       29.98S
BEATRICE       FAIR      62  48  59 S10       30.00S
FALLS CITY     FAIR      63  52  67 S10       30.03R
NEBRASKA CITY  FAIR      61  52  73 S10       30.01S
PLATTSMOUTH    FAIR      62  52  70 S10       29.99F
$$

NEZ044-045-051>053-067-200600-
OMAHA AREA

CITY           SKY/WX    TMP DP  RH WIND       PRES   REMARKS
OMAHA EPPLEY   FAIR      62  51  67 S12       29.98S
BLAIR          FAIR      64  51  62 S14       29.96F
FREMONT        FAIR      65  49  56 S9        29.96S
MILLARD        FAIR      65  53  65 SE8       29.98S
OFFUTT AFB     FAIR      60  50  71 SE9       29.98S
PLATTSMOUTH    FAIR      62  52  70 S10       29.99F
WAHOO          FAIR      58  49  73 S8        29.96S
$$



USA.gov is the U.S. government's official web portal to all federal, state and local government web resources and services.